Location: Chavannes
(47.1090°N, 0.2226°W)
Time: 04:04:36
(UTC+00:00)

Ariane Rocket - Pass Details

Date: 16 October 2021
Orbit: 759 x 770 km, 98.7° (Epoch: 03 December)

Event Time Altitude Azimuth Distance (km) Brightness Sun altitude
Exits shadow 19:41:04 27° 21° (NNE) 1,452 4.3 -26.1°
Drops below altitude 10° 19:43:45 10° 360° (N) 2,326 5.7 -26.5°
Sets 19:46:11 0° 353° (N) 3,257 6.6 -26.9°
